Regional Weather Roundup
Issued by NWS

Home | Current Version | Previous Version | Graphics & Text | Print | Product List | Glossary Off
Versions: 1 2 3 4 5 6 7 8 9 10 11 12 13 14 15 16 17 18 19 20 21 22 23 24 25 26 27 28 29 30 31 32 33 34 35 36 37 38 39 40 41 42 43 44 45 46 47 48 49 50

000
ASUS45 KBOU 241107
RWRCO

WEATHER ROUNDUP FOR COLORADO
NATIONAL WEATHER SERVICE DENVER/BOULDER CO
400 AM MST FRI FEB 24 2017

NOTE: "FAIR" INDICATES FEW OR NO CLOUDS BELOW 12000 FEET WITH NO
SIGNIFICANT WEATHER AND/OR OBSTRUCTIONS TO VISIBILITY.

COZ001>005-013-030-031-241200-
...NORTHWEST COLORADO...

CITY           SKY/WX    TMP DP  RH WIND       PRES   REMARKS
CRAIG          CLOUDY    18  11  74 SW6       29.79S WCI  10
HAYDEN         FAIR      16  10  79 NW6       29.77R WCI   7
MEEKER         LGT SNOW  20  18  92 SW5       29.78R FOG     WCI  13
MOUNT WERNER   NOT AVBL
STEAMBOAT SPGS CLOUDY    16  14  91 CALM      29.75R VSB 1
WALDEN         NOT AVBL
$$

COZ006>008-011-241200-
...WEST CENTRAL VALLEYS...

CITY           SKY/WX    TMP DP  RH WIND       PRES   REMARKS
GRAND JUNCTION FAIR      23  21  92 NE8       29.83R WCI  14
MONTROSE       FAIR      22  13  68 E3        29.83S
EAGLE          CLOUDY    16  14  92 E5        29.79R WCI   9
RIFLE          CLOUDY    24  19  81 W5        29.81S WCI  18
DELTA          FAIR      23  15  71 NE3       29.83R
NUCLA          CLOUDY    27  18  69 E6        29.85S WCI  20
$$

COZ017>023-064>068-241200-
...SOUTHWEST COLORADO...

CITY           SKY/WX    TMP DP  RH WIND       PRES   REMARKS
DURANGO        MOCLDY    18  12  77 W3        29.81R
CORTEZ         MOCLDY    23  19  85 CALM      29.84S
PAGOSA SPRINGS MOCLDY     9   2  72 CALM      29.78S
TELLURIDE      LGT SNOW  12  10  90 SE5       29.75S WCI   4
WOLF CREEK PAS CLOUDY     0  -4  85 SW12      29.67S WCI -18
$$

COZ009-010-012-014-032>034-037-058>063-241200-
...CENTRAL COLORADO...

CITY           SKY/WX    TMP DP  RH WIND       PRES   REMARKS
ASPEN          CLOUDY    14   6  70 S6        29.72S WCI   5
BUENA VISTA    FAIR      12   1  60 NW8       29.70S WCI   1
COPPER MTN     LGT SNOW   5  -4  66 MISG      29.56S
BERTHOUD PASS  CLOUDY    -4 -15  59 NW23G36   29.52R HAZE    WCI -29
COTTONWOOD PAS MOCLDY    14   0  52 NW7G22    29.64F WCI   4
GUNNISON       FAIR       5  -2  72 NE5       29.77R WCI  -4
KREMMLING      FLURRIES  21  16  79 CALM      29.72S
LEADVILLE      FLURRIES   1  -4  79 CALM      29.63S
MONARCH PASS   CLOUDY     1  -4  78 W23       29.68S WCI -21
SALIDA         FAIR      19   5  54 SW9       29.79F WCI   8
SUNLIGHT       NOT AVBL
WILKERSON PASS FAIR       3  -4  72 SW8       29.60S WCI -10
$$

COZ069>075-241200-
...SAN LUIS VALLEY/SANGRE DE CRISTO MOUNTAINS...

CITY           SKY/WX    TMP DP  RH WIND       PRES   REMARKS
ALAMOSA        FAIR      13   7  77 CALM      29.74S
LA VETA PASS   CLOUDY     7   0  72 S12G18    29.65S WCI  -9
SAGUACHE       FAIR      12   1  62 NW13      29.74S WCI  -3
$$

COZ035-036-038>040-241200-
...NORTHERN COLORADO FRONT RANGE...

CITY           SKY/WX    TMP DP  RH WIND       PRES   REMARKS
DENVER INTL AP FLURRIES  19  14  81 N8        29.84S WCI   9
DMNS CITY PARK   N/A     19  14  82 MISG      29.85S
AURORA         FLURRIES  17  15  92 N6        29.83S WCI   9
FRONT RANGE AP FLURRIES  21  18  86 N7        29.84S WCI  13
ERIE MUNI ARPT FLURRIES  20  17  88 W3        29.87R
BOULDER MUN AP FLURRIES  19  18  93 W3        29.86R
CENTENNIAL     LGT SNOW  16  13  88 NW7       29.82R FOG     WCI   6
BROOMFIELD     FLURRIES  19  16  86 NW5       29.84R WCI  13
FORT COLLINS   FLURRIES  20  14  77 NE7       29.88R WCI  11
LONGMONT       CLOUDY    22  17  80 CALM      29.89R
$$

COZ041-046-047-076>085-087-088-241200-
...PIKES PEAK/PALMER DIVIDE AND SOUTHERN FOOTHILLS...

CITY           SKY/WX    TMP DP  RH WIND       PRES   REMARKS
COLO. SPRINGS  FAIR      14   5  67 N8        29.78R WCI   3
A. F. ACADEMY  FAIR      12   5  73 N10       29.75R WCI  -1
SCHRIEVER AFB  FAIR      13   7  77 NW15G24   29.78R WCI  -3
ELLICOTT       FAIR     N/A N/A N/A N17         N/A
FALCON         FAIR      11   6  79 N18G24    29.74R WCI  -7
FORT CARSON    MOCLDY    17   9  70 N3        29.78R
LIMON          CLOUDY    17  15  92 N15G25    29.80S WCI   2
MONUMENT HILL  FLURRIES   9   5  85 NW6       29.77S WCI  -1
TRINIDAD       CLOUDY    20  14  77 E9        29.80R WCI   9
$$

COZ042>045-048>051-090-091-241200-
...NORTHEAST COLORADO...

CITY           SKY/WX    TMP DP  RH WIND       PRES   REMARKS
GREELEY ARPT   FLURRIES  20  16  84 N8        29.90R WCI  10
AKRON          FLURRIES  17  14  88 N8        29.84R WCI   7
BURLINGTON     MOCLDY    21  17  84 N17G28    29.82R WCI   7
WRAY           NOT AVBL
STERLING       LGT SNOW  21  19  93 N9        29.87S WCI  11
HOLYOKE        LGT SNOW  25  21  86 N13       29.87R WCI  13
FORT MORGAN    CLOUDY    19  16  89 N12       29.87S WCI   7
$$

COZ086-089-092>099-241200-
...SOUTHEAST COLORADO...

CITY           SKY/WX    TMP DP  RH WIND       PRES   REMARKS
PUEBLO         FAIR      17   8  67 NE10      29.84R WCI   5
LA JUNTA       FAIR      20  11  68 NW6       29.87S WCI  12
LAMAR          CLOUDY    26  13  57 N15G24    29.86S WCI  14
SPRINGFIELD      N/A     20  13  74 NW10      29.82S WCI   9
$$



USA.gov is the U.S. government's official web portal to all federal, state and local government web resources and services.